Wind_Speed
10 10 8 9 8 6 8 10 8 8 9 11 13 14 14 12 9 8 10 10 10 9 8 7 6 8 10 12 15 17 18 14 12 18 20 20 16 15 19 20 21 21 17 12 10 9 8 6 4 2 1 0 1 1 1 2 2 1 2 3 3 3 3 4 4 5 6 7 7 4 3 6 4 1 3 2 5 8 9 9 8 6 8 13 17 19 20 17
9 10 9 8 6 6 8 8 8 8 9 11 13 14 14 13 12 10 10 9 9 8 7 4 2 4 5 7 9 11 16 16 16 24 23 15 13 15 18 19 19 19 18 13 9 8 7 6 4 2 1 1 1 1 1 2 3 1 1 3 3 3 3 5 7 8 6 8 10 7 5 5 5 2 4 3 3 7 7 9 9 12 15 16 18 18 17 16
7 9 8 8 7 8 8 7 7 9 10 12 12 12 11 12 13 12 12 11 11 12 12 10 6 3 3 2 1 4 10 15 20 23 18 14 14 15 17 19 18 17 18 14 11 9 6 5 5 3 1 2 2 2 2 3 4 1 1 4 2 5 3 6 9 9 8 9 10 8 7 5 5 2 4 3 2 5 2 6 7 11 16 15 16 16 16 16
7 7 8 8 9 9 7 6 7 9 11 11 11 10 9 9 10 12 12 11 11 12 13 15 13 9 5 1 3 3 1 10 20 20 14 14 14 14 17 19 19 18 18 15 12 10 7 6 4 2 2 3 3 2 3 5 4 0 2 4 5 5 3 8 11 11 10 8 8 8 8 5 3 1 1 4 3 3 2 3 4 11 18 17 16 16 16 16
5 6 7 7 8 7 5 6 8 10 11 10 10 9 9 9 9 9 10 9 9 7 9 11 14 17 16 12 3 4 5 2 14 16 12 15 14 14 16 18 19 18 17 15 13 12 10 8 3 2 2 3 3 2 3 6 4 0 2 4 5 5 4 10 13 13 12 8 6 7 6 6 4 2 3 4 4 3 4 2 4 14 19 18 19 18 17 17
2 4 5 6 6 5 5 7 9 10 9 8 9 10 11 11 11 10 9 8 6 4 4 5 8 12 15 18 13 8 7 3 12 15 12 13 13 14 15 17 20 17 15 16 17 14 13 13 6 3 2 3 4 3 3 5 3 1 3 5 5 4 5 9 13 14 12 7 6 6 6 5 3 1 5 8 7 9 6 5 13 19 19 20 20 19 18 18
6 4 6 6 5 5 7 9 10 10 9 9 9 10 13 14 15 13 12 10 9 8 5 2 3 3 6 12 15 20 21 14 16 15 11 12 12 13 13 16 19 17 15 16 20 17 15 16 10 6 3 3 3 3 4 5 3 2 3 5 6 5 6 9 12 14 12 9 8 5 5 5 5 3 6 12 12 10 10 15 20 21 21 21 21 20 20 19
8 7 7 7 7 8 10 10 11 11 10 10 9 11 16 18 18 16 15 15 15 15 11 6 2 2 4 5 12 25 26 19 18 16 11 11 11 11 12 15 17 17 16 18 21 17 16 17 12 6 3 3 3 3 4 3 4 5 5 5 5 4 7 12 12 14 12 11 10 6 6 5 4 4 8 12 11 13 16 20 22 23 22 21 21 20 20 20
8 8 9 9 9 10 10 11 11 11 10 10 10 13 17 18 16 15 14 13 15 17 16 13 7 4 6 5 10 21 20 17 17 16 13 11 11 11 11 14 16 16 17 19 19 17 17 15 12 6 4 6 4 4 6 4 4 5 5 4 5 3 5 13 13 16 13 8 11 8 7 5 4 6 10 10 11 14 18 21 21 22 22 21 21 20 20 21
9 9 10 10 10 10 10 10 10 10 10 10 11 13 14 14 14 14 14 14 14 14 17 19 16 12 10 13 20 15 13 16 15 15 14 12 11 9 10 13 15 15 16 18 17 17 17 15 13 6 5 7 4 5 6 5 2 4 5 1 5 3 2 12 14 16 13 5 11 11 8 5 3 3 6 8 10 13 18 20 19 20 21 20 20 20 20 20
9 9 10 10 10 9 9 9 9 9 9 10 11 11 10 10 11 11 12 14 16 15 15 15 17 19 19 27 28 15 14 15 12 14 14 11 10 10 12 13 14 15 16 16 15 16 17 16 16 9 4 6 4 3 5 6 2 3 8 3 4 6 3 12 16 16 16 4 10 13 7 3 6 5 5 8 9 13 18 19 18 20 20 19 19 19 19 20
9 9 9 10 9 8 8 8 8 9 10 11 11 9 7 7 7 6 7 8 9 12 16 16 15 16 24 33 29 17 18 17 10 11 12 12 13 13 14 14 12 14 14 14 13 15 16 16 17 18 11 5 1 1 3 8 2 2 9 2 6 9 2 14 16 15 18 6 11 15 7 2 8 6 7 11 10 14 17 18 18 18 18 18 19 18 19 19
9 9 9 9 8 7 7 7 7 9 10 10 9 8 6 4 3 4 7 7 5 6 10 16 18 18 26 28 23 20 19 17 8 5 11 14 14 15 15 13 11 12 13 13 12 13 17 16 15 22 23 11 1 1 2 6 5 4 7 3 7 7 2 14 13 12 14 8 15 16 7 3 8 7 9 11 11 16 16 16 16 17 17 17 17 18 18 18
8 8 9 9 8 8 8 8 9 10 9 8 8 8 7 5 5 5 7 6 6 7 5 8 10 17 26 20 18 24 20 17 10 5 12 13 12 14 14 12 9 9 11 13 11 10 12 12 16 24 28 20 5 1 1 4 7 7 5 1 7 5 6 13 9 9 9 9 16 13 8 4 8 7 7 10 11 14 15 15 15 15 15 15 15 16 17 17
8 8 9 10 10 9 9 9 9 9 8 7 8 8 9 9 8 8 9 8 8 10 9 9 6 10 18 15 15 22 21 21 17 13 15 12 11 13 13 12 7 5 11 15 11 9 7 9 20 24 20 18 10 1 2 3 4 5 4 5 8 7 10 9 6 8 7 9 14 8 9 6 6 7 3 9 11 12 14 14 14 14 14 14 14 13 14 14
8 9 10 10 9 8 8 8 7 7 6 6 6 7 8 10 9 11 12 10 10 11 11 13 11 10 12 9 12 20 26 27 21 16 13 10 12 13 12 13 6 3 10 16 12 8 9 13 18 19 15 13 9 2 2 2 3 6 8 8 9 10 11 10 8 6 2 8 12 6 9 7 4 8 2 9 12 12 14 15 14 14 13 12 12 12 12 12
9 9 9 8 7 7 7 6 6 7 7 8 9 7 5 4 5 6 5 6 8 11 12 12 11 12 13 10 12 19 26 28 22 15 11 9 10 12 13 15 8 5 7 14 15 12 14 15 9 8 13 11 7 5 2 7 9 8 8 7 7 10 10 11 12 5 2 7 11 9 9 5 5 9 5 9 13 13 14 14 13 12 11 10 10 11 11 11
9 9 8 8 9 10 11 12 13 15 18 20 20 18 13 8 4 3 2 3 4 5 8 11 7 6 11 14 14 14 17 25 26 18 13 8 7 13 17 17 12 6 6 11 16 14 10 8 4 3 9 9 9 10 8 7 9 10 10 7 7 9 8 10 13 9 8 8 9 11 9 4 6 8 7 8 12 13 14 13 12 11 10 9 9 9 10 11
10 10 12 14 17 18 19 18 16 15 17 18 19 20 19 19 18 17 17 16 14 8 4 12 12 4 4 12 14 12 10 19 29 22 16 11 7 11 17 19 18 13 8 6 10 13 6 2 6 7 8 9 10 11 8 4 6 10 10 7 8 10 7 10 15 9 7 9 10 9 8 5 5 6 7 8 11 12 12 12 10 9 8 8 8 8 9 11
13 15 17 20 22 21 17 12 8 8 8 7 7 7 8 11 14 19 27 31 27 19 12 14 16 9 5 10 14 15 8 11 28 30 21 18 10 9 17 18 18 18 11 2 4 8 6 6 8 8 7 7 7 7 4 2 6 9 8 7 8 8 8 12 15 8 5 8 11 7 5 3 5 5 6 8 10 11 11 10 9 8 7 7 9 9 10 12
17 18 19 20 18 13 8 4 5 6 5 3 3 4 4 5 5 9 20 26 23 21 21 20 20 15 11 12 14 17 11 7 24 34 25 21 14 8 16 17 10 12 8 2 1 3 6 9 7 6 5 3 3 2 2 4 6 7 6 8 8 7 12 11 9 10 8 7 8 5 5 2 7 6 7 9 8 10 9 9 9 7 7 8 9 10 13 16
17 16 15 14 10 6 4 3 4 5 6 7 9 12 13 12 11 12 15 16 14 16 19 20 22 20 15 13 12 18 21 12 19 35 29 22 19 11 11 13 8 6 6 3 1 2 7 9 6 5 2 2 2 2 4 7 7 6 6 7 7 10 15 9 6 13 10 6 7 5 6 2 9 7 8 9 8 8 8 9 8 7 8 9 11 12 15 18
12 12 12 9 7 5 5 5 5 5 8 9 10 12 15 15 14 13 14 12 9 10 12 15 20 22 19 15 11 16 26 20 17 32 33 23 19 14 10 9 6 5 5 6 6 6 7 7 7 3 2 2 1 3 8 8 5 6 8 8 8 11 14 10 11 18 13 7 7 8 6 2 9 7 8 9 10 11 10 9 8 9 9 11 14 15 16 18
10 10 10 9 7 6 6 8 7 6 6 4 4 6 8 9 9 8 9 8 5 6 9 12 16 20 20 18 12 9 19 23 19 27 30 23 15 10 8 5 4 5 5 7 11 11 7 5 5 2 2 4 5 7 10 9 6 5 7 9 11 14 16 13 13 17 14 4 2 9 7 2 7 7 8 9 11 12 10 7 8 11 12 13 15 16 16 17
10 10 9 8 7 6 7 8 7 6 4 3 2 2 4 2 4 4 4 4 3 4 7 8 12 16 19 20 13 3 9 19 23 26 26 21 15 7 5 5 5 6 4 3 6 10 7 5 4 1 4 8 8 9 9 8 7 3 7 11 13 16 17 17 15 13 10 3 3 8 9 5 3 9 9 7 9 8 6 4 8 11 14 16 17 18 18 19
11 10 8 7 6 5 5 5 5 5 4 3 2 1 2 2 1 3 2 2 2 4 6 6 8 12 16 20 14 1 4 11 17 27 26 19 16 8 3 5 5 4 3 1 3 4 4 2 1 3 7 9 8 8 6 7 8 5 8 13 15 17 16 14 14 9 6 7 5 5 7 11 6 5 9 8 8 6 3 4 10 13 14 17 19 19 21 21
9 8 7 5 4 2 2 1 2 3 2 3 1 0 1 2 1 1 1 1 2 3 6 5 6 10 12 17 17 4 1 8 9 22 28 17 14 11 6 3 2 4 2 1 2 2 2 3 4 5 6 8 9 8 7 7 7 6 11 14 15 18 16 12 10 7 6 8 4 5 8 12 9 4 8 8 7 4 1 5 11 14 16 18 19 20 22 23
8 7 6 4 3 2 2 3 2 2 1 2 2 0 1 1 2 0 0 1 2 2 4 4 4 9 9 12 20 13 5 9 6 14 26 19 12 12 10 4 1 4 5 2 3 3 2 4 5 6 7 7 8 8 8 7 5 7 12 14 13 15 14 8 6 6 6 5 5 10 12 11 9 4 8 7 4 2 3 7 10 14 17 18 19 21 24 28
7 6 5 4 4 4 5 5 4 2 2 1 1 1 2 3 3 1 1 1 2 2 2 4 3 9 10 7 15 15 9 10 7 11 23 24 15 8 8 7 2 0 5 6 5 2 1 2 1 3 6 6 7 8 7 6 6 9 13 13 12 11 8 4 3 6 6 4 8 15 15 11 8 3 6 4 2 3 6 7 10 15 18 18 19 23 28 32
6 6 6 6 6 7 8 7 6 4 2 1 0 2 4 4 2 1 1 1 1 2 3 5 3 9 12 5 7 11 8 9 10 11 18 25 26 18 9 8 7 0 2 6 5 3 1 1 1 0 4 6 8 7 3 3 5 12 12 11 9 5 4 2 1 3 5 5 10 18 18 13 8 3 3 2 2 2 6 8 11 16 19 19 20 27 32 31
6 6 7 8 9 10 9 8 6 5 3 2 3 5 5 2 1 2 1 0 1 2 3 4 3 5 9 4 3 8 4 6 11 10 11 16 23 23 11 6 6 2 2 3 4 4 3 3 0 2 2 6 8 5 2 4 4 9 9 13 10 4 5 3 1 1 3 7 12 18 17 11 9 6 4 5 4 1 4 8 11 15 20 22 25 32 33 31
6 7 9 9 10 9 8 6 5 5 4 4 6 6 3 0 0 1 1 2 1 2 2 2 2 3 4 1 3 6 2 4 8 7 6 6 8 13 10 6 5 3 3 5 4 3 3 4 2 2 2 7 7 4 1 2 3 10 11 12 11 7 7 6 7 7 5 8 13 16 12 8 9 6 5 6 2 2 5 7 11 16 21 24 30 34 33 32
5 6 7 7 6 5 4 4 4 6 5 6 8 5 1 0 1 1 1 2 1 2 1 1 2 2 2 1 3 4 1 2 6 4 2 2 3 6 9 10 9 5 3 5 6 6 2 4 3 1 1 8 10 7 6 5 7 11 10 9 8 7 8 8 10 10 8 10 13 11 6 7 10 5 6 7 2 3 6 7 11 17 21 26 31 32 32 30
2 2 2 1 1 3 4 5 5 6 6 8 7 3 1 1 1 0 1 1 1 1 1 1 2 1 1 2 3 3 1 1 3 4 3 2 3 5 7 10 12 6 2 2 3 5 4 1 4 4 2 8 10 5 4 6 4 6 7 6 6 4 4 7 9 9 11 14 12 8 5 8 12 4 5 6 3 5 7 8 14 19 22 28 31 31 30 27
3 3 3 3 3 4 5 6 6 6 8 9 5 2 0 2 1 1 1 0 0 1 1 0 1 0 2 2 2 1 1 1 1 3 5 4 3 4 4 6 10 7 2 1 2 2 3 2 3 4 0 5 8 2 2 5 2 4 5 4 7 7 5 6 7 6 9 13 9 5 5 9 8 3 7 4 6 8 10 14 18 22 28 33 32 31 29 28
6 5 3 2 2 3 4 6 6 7 9 7 3 2 1 1 1 1 1 1 0 1 0 1 1 2 1 1 2 2 1 1 0 1 3 4 2 3 2 2 6 6 3 2 1 2 3 2 3 4 3 5 7 1 1 4 3 5 5 5 7 6 4 6 6 7 8 10 8 7 9 11 7 2 4 4 7 10 15 18 21 27 32 34 31 29 29 30
5 6 4 2 1 3 5 6 6 8 9 4 3 2 1 0 1 1 1 1 1 0 1 1 1 3 2 1 2 4 3 1 1 2 1 1 1 3 1 1 2 3 3 2 0 1 3 5 3 2 2 4 5 5 8 7 5 5 5 7 7 5 4 3 6 7 10 9 7 9 13 12 11 7 3 6 12 15 16 19 26 32 34 33 30 29 29 28
4 5 5 4 3 3 5 6 6 8 6 4 4 2 1 0 1 1 2 2 1 1 0 1 1 1 1 1 1 4 5 3 3 3 1 1 1 2 0 1 1 3 4 3 1 1 2 5 1 2 1 2 3 3 4 7 6 5 4 6 5 2 3 5 4 7 12 12 9 11 14 10 9 9 9 12 15 16 19 21 27 31 32 32 30 29 29 26
1 3 5 5 3 5 6 6 6 6 4 3 2 2 1 1 1 2 2 1 0 1 1 1 1 1 0 0 1 2 3 3 3 2 1 2 2 2 0 1 1 3 3 2 1 1 2 3 1 3 2 3 1 1 3 3 5 5 4 3 3 1 4 2 1 4 8 10 11 14 14 8 7 8 9 13 15 17 21 21 23 29 32 32 29 29 27 23
2 1 4 4 3 5 5 6 5 4 3 2 2 2 1 2 2 2 2 2 1 1 1 2 1 1 1 0 0 1 2 2 2 2 2 2 1 2 2 1 1 2 2 1 0 0 1 2 3 2 3 4 0 1 1 1 2 1 2 3 3 1 2 2 1 1 1 7 10 13 12 8 7 6 6 12 15 17 22 22 24 30 32 30 28 27 24 23
3 1 3 2 3 5 5 6 7 6 3 2 2 2 2 3 4 3 4 4 3 3 3 3 2 1 1 0 1 1 1 1 1 1 1 1 1 1 2 3 2 0 0 1 1 1 1 2 4 6 5 4 2 3 2 4 4 4 4 2 3 5 3 5 5 1 1 5 6 7 11 10 7 5 4 10 14 18 25 27 27 31 32 30 28 25 21 22
4 1 2 1 4 5 5 6 7 4 2 2 3 4 4 5 4 3 3 4 3 3 4 3 2 2 1 0 1 2 1 1 0 0 0 0 1 2 1 2 1 2 2 1 1 1 1 2 4 6 6 3 4 5 5 8 9 6 5 3 1 3 4 5 7 6 5 6 6 7 10 8 4 7 9 12 17 23 28 29 30 32 31 29 27 23 20 22
4 3 2 2 3 5 5 4 3 3 3 3 4 6 5 4 3 3 3 2 2 2 2 2 1 1 1 1 1 2 2 1 0 0 1 1 0 1 0 1 1 2 3 1 1 2 2 1 3 6 5 2 5 4 5 7 6 4 6 4 2 3 2 1 4 6 5 6 7 7 9 6 5 14 19 18 22 27 28 29 30 31 30 29 26 22 21 24
7 6 4 2 3 5 2 2 2 2 2 3 4 5 5 5 4 3 2 2 2 1 1 2 1 1 2 1 1 1 1 1 1 0 0 1 1 1 1 1 1 1 0 1 1 1 1 1 3 6 5 1 1 0 1 3 3 2 4 4 4 4 1 2 3 1 3 7 10 10 10 8 9 17 23 23 26 28 29 31 30 29 29 28 26 23 22 26
7 5 6 5 2 5 3 5 7 5 3 4 5 3 3 5 5 4 4 4 3 2 2 2 2 3 3 1 1 2 0 1 0 0 1 1 1 1 2 2 1 1 1 1 1 2 2 2 3 4 6 6 5 5 5 6 6 3 3 4 3 3 2 1 3 3 5 11 13 9 10 13 16 19 21 22 23 24 29 33 31 29 28 26 25 23 24 29
2 1 3 6 5 5 7 9 12 9 5 4 4 1 1 3 2 4 6 4 3 4 3 3 3 3 2 1 1 2 1 1 2 1 1 1 1 1 2 2 1 1 2 2 2 1 0 1 2 2 2 5 8 10 12 11 10 8 4 1 3 4 3 1 3 6 10 13 10 8 11 19 22 23 22 21 20 20 25 32 33 31 28 26 24 23 25 30
2 1 0 2 5 9 11 9 11 10 6 4 3 2 3 3 2 2 3 2 3 4 3 3 2 1 1 2 2 2 1 1 1 1 1 1 0 0 2 3 2 2 2 1 3 1 0 2 2 3 7 10 12 15 16 13 11 12 9 2 4 5 4 2 4 7 11 11 8 9 15 20 21 22 22 21 20 19 24 29 30 30 28 25 23 23 26 30
1 2 2 3 2 3 4 5 10 13 7 3 3 2 3 4 3 2 2 2 3 3 1 1 1 0 0 1 1 1 1 0 1 1 1 1 1 0 1 3 2 3 3 1 3 2 1 3 1 2 8 12 13 16 16 13 10 9 7 6 6 5 5 5 7 10 9 7 11 17 21 20 20 20 19 19 20 20 24 27 27 27 25 22 22 24 28 30
4 5 5 5 4 5 5 7 13 15 8 4 3 1 2 5 4 2 1 2 2 1 1 2 2 2 1 1 1 1 1 1 1 2 2 2 2 1 1 2 2 2 3 2 2 2 1 2 2 1 8 12 14 14 12 10 8 7 8 8 8 7 7 8 10 11 10 12 16 20 21 18 15 14 17 22 24 22 23 26 27 25 22 20 22 25 29 29
5 5 5 8 10 9 8 8 9 8 4 2 2 1 2 4 4 3 2 2 2 2 2 2 3 3 2 2 2 1 2 2 1 2 4 3 2 2 2 1 2 2 1 1 1 1 1 1 2 1 6 10 9 8 7 8 8 9 8 7 8 8 9 9 10 10 10 12 15 17 18 14 9 13 21 25 25 24 24 27 27 24 21 20 23 27 30 28
6 6 7 10 8 5 3 5 4 3 1 1 1 3 3 3 5 6 3 0 1 3 2 3 6 4 2 2 3 2 2 2 2 2 5 5 2 2 2 1 3 3 1 1 1 1 1 1 1 1 5 6 3 4 6 5 4 6 7 8 10 8 7 7 8 9 9 12 15 14 12 10 11 19 24 24 25 26 25 26 26 24 20 20 23 29 30 27
7 8 9 8 4 2 2 3 2 2 2 1 2 4 3 4 9 9 4 0 3 4 3 5 8 5 1 2 4 3 2 3 2 2 4 5 3 2 2 3 4 3 1 2 1 1 1 1 1 1 4 5 1 6 10 3 2 2 3 7 10 9 7 9 9 10 10 9 9 9 8 10 16 21 20 20 23 25 24 26 25 21 18 19 23 27 28 25
Wind_Direction
95 96 87 67 68 78 81 73 63 65 77 79 75 72 71 80 104 120 121 115 106 95 83 80 83 83 86 86 78 70 57 52 68 70 60 45 37 34 28 25 27 27 27 29 30 34 40 41 46 37 62 131 6 32 39 52 47 258 261 284 286 301 317 346 326 330 329 316 341 13 333 297 304 91 146 102 102 100 83 72 71 89 116 127 129 138 143 142
94 92 88 76 81 85 78 71 71 83 94 87 77 73 69 76 88 105 116 111 98 76 61 59 103 125 116 100 85 73 56 50 65 60 50 41 38 37 31 28 29 30 29 29 27 32 39 36 40 45 136 147 53 74 91 43 14 319 283 283 290 343 360 19 352 339 329 316 330 340 339 308 311 6 193 229 126 125 91 83 91 98 110 122 127 133 138 138
88 84 89 94 96 91 86 78 86 103 104 88 78 72 70 77 84 93 100 101 92 73 64 63 82 136 175 167 108 73 53 50 53 44 36 35 36 33 32 30 27 29 28 27 26 25 32 36 42 50 126 115 67 92 84 20 6 52 290 287 346 8 360 31 4 346 336 318 325 330 334 314 311 332 213 259 171 175 156 127 126 122 125 123 125 134 135 130
75 79 84 94 100 97 91 84 101 119 105 84 76 70 68 77 87 93 94 96 92 78 70 70 77 76 57 320 251 221 90 48 33 22 26 31 30 32 32 29 27 30 27 24 26 27 30 24 33 60 112 96 62 85 60 13 2 112 296 327 22 355 334 28 7 351 349 323 318 321 318 321 338 339 231 304 259 196 122 141 157 148 139 127 126 127 121 118
69 81 85 98 106 102 91 91 111 123 107 85 75 66 61 70 85 95 92 87 84 79 74 77 80 71 56 42 35 211 211 56 17 12 27 27 25 30 29 27 26 30 28 26 31 31 33 24 28 76 74 72 35 54 56 16 355 250 62 31 23 354 352 22 7 355 354 334 320 322 322 337 356 20 9 330 295 347 11 2 122 135 131 124 123 117 111 107
125 93 111 123 116 106 98 100 111 121 113 90 78 67 65 73 83 91 89 79 62 51 61 90 95 76 62 52 60 102 117 72 7 12 23 20 23 24 25 24 21 25 22 24 30 27 31 30 44 72 58 72 31 29 35 13 355 310 75 54 34 23 13 14 6 3 5 357 339 337 341 339 337 20 44 32 2 352 6 98 119 126 123 121 117 108 105 99
170 154 145 138 127 117 104 102 108 117 114 99 86 77 81 82 84 88 87 81 62 45 41 76 127 113 86 67 67 78 73 45 12 15 16 14 17 15 20 17 13 18 11 19 25 23 30 32 49 70 64 83 37 21 23 28 48 29 55 45 34 47 29 16 8 10 20 16 1 347 340 338 330 333 58 42 30 37 80 119 128 127 120 117 110 102 99 92
160 156 149 140 129 115 103 104 106 110 110 105 96 91 94 90 88 90 85 80 65 53 45 50 89 168 143 105 61 58 47 19 9 15 12 10 8 8 15 7 7 13 13 22 24 25 35 33 42 55 66 64 26 8 9 35 84 43 34 25 27 67 39 26 21 15 21 17 8 348 335 358 16 54 65 42 50 77 98 121 124 118 113 107 101 95 92 86
148 144 144 138 126 114 108 107 103 103 108 113 109 105 102 93 90 88 80 74 63 58 53 53 61 88 132 136 70 55 29 3 4 8 10 11 7 7 4 359 6 15 20 23 23 32 40 37 38 49 82 59 32 23 359 357 53 28 10 17 27 77 38 25 26 14 10 20 13 343 335 23 106 77 64 57 73 94 104 112 110 108 102 95 92 87 86 82
140 141 142 137 128 120 113 106 100 98 105 117 122 116 104 92 90 86 79 72 66 64 60 62 67 81 110 97 77 63 18 10 6 5 15 15 8 5 357 1 12 18 23 22 25 38 45 44 40 55 76 44 25 30 17 1 22 3 349 82 34 30 72 18 19 14 2 15 17 346 331 31 118 52 63 83 91 107 108 105 103 102 95 89 89 83 82 77
139 141 139 139 134 124 113 103 97 96 101 113 127 130 113 98 95 86 79 74 70 66 63 68 72 75 82 75 69 56 21 21 9 10 19 17 16 12 8 14 16 19 23 23 33 45 49 49 44 56 48 6 8 41 54 28 29 10 359 163 17 358 132 14 6 6 355 346 11 344 304 70 77 35 94 118 113 119 112 106 102 97 93 89 87 81 77 73
138 138 138 140 135 123 110 100 96 101 106 111 120 128 118 108 102 83 75 79 72 65 61 61 65 69 67 62 58 44 29 25 13 13 15 18 25 21 19 18 12 18 20 27 48 57 58 55 48 54 40 354 357 51 62 25 36 60 16 93 2 350 108 14 2 354 347 334 353 337 285 98 63 51 127 137 127 124 114 108 103 96 94 88 85 79 73 69
136 136 136 137 130 119 107 101 104 107 113 118 118 115 110 104 102 85 76 74 66 71 68 63 62 66 69 64 50 40 34 25 21 12 15 23 24 20 20 12 5 15 21 34 56 66 63 57 50 51 41 29 49 3 47 37 44 24 4 41 355 341 37 9 0 345 345 349 349 337 305 22 67 82 134 141 135 131 118 110 105 98 95 87 83 77 71 65
135 133 130 129 124 117 109 106 105 106 114 121 116 107 95 83 93 97 82 75 70 70 69 67 61 59 69 75 48 38 35 29 32 21 21 27 24 24 20 7 359 6 25 42 54 68 64 47 41 45 37 28 21 246 101 75 48 3 306 318 3 353 356 359 2 349 350 352 344 335 315 352 84 85 135 149 146 138 121 114 109 99 95 88 83 76 70 64
133 129 125 124 122 118 112 106 100 105 113 111 113 108 86 77 91 99 86 76 75 72 66 69 77 66 69 73 43 32 33 33 30 19 18 24 27 29 22 10 2 12 38 45 48 64 60 34 42 42 29 23 28 142 140 110 73 23 339 347 357 352 344 351 24 9 358 337 333 333 322 328 88 63 130 162 155 141 123 115 109 101 98 89 82 74 69 63
130 126 125 124 123 121 114 104 99 104 110 111 118 118 96 81 94 107 92 72 75 74 68 71 77 76 68 55 33 30 32 31 26 19 16 26 31 26 20 18 27 84 58 51 53 74 56 41 55 48 28 24 18 297 173 72 34 32 22 354 341 348 342 342 2 11 13 331 331 337 321 316 59 39 46 169 159 140 124 117 112 106 98 89 80 72 65 54
130 126 125 124 123 118 108 103 107 107 104 103 101 112 126 104 109 119 79 56 85 74 60 71 77 73 62 40 25 26 29 28 26 27 23 29 34 27 28 30 42 121 84 52 49 60 54 44 64 56 33 31 4 338 41 21 359 359 6 352 337 338 327 330 341 347 18 332 326 320 312 331 48 34 48 157 157 140 129 123 118 111 99 88 76 64 53 39
127 122 118 114 112 108 106 106 104 98 93 89 86 87 90 88 104 138 87 68 100 73 44 48 57 82 55 29 20 19 25 27 26 31 31 31 40 34 35 39 51 109 97 51 37 37 50 54 67 56 34 31 21 30 48 19 343 332 339 342 333 324 319 329 326 333 1 333 314 321 318 359 52 48 68 136 151 139 133 127 121 113 98 84 66 51 37 22
122 117 113 112 112 109 110 108 98 89 86 87 89 88 86 84 82 81 79 76 69 65 40 32 39 99 47 17 20 17 15 26 26 30 34 30 45 38 35 45 56 71 75 52 30 23 24 63 45 33 26 26 30 42 51 16 313 312 319 318 319 320 327 330 318 330 15 334 320 335 324 343 46 59 77 125 147 140 133 126 120 109 91 70 47 31 15 2
120 117 117 119 118 114 112 104 79 71 80 93 100 92 91 83 73 66 66 69 70 72 74 57 58 84 60 22 27 20 6 22 25 28 30 26 33 35 30 39 52 56 56 27 15 21 27 54 44 22 16 26 38 43 31 310 283 301 312 316 317 320 330 328 321 335 30 337 326 340 323 356 68 64 89 125 143 140 134 124 114 101 78 46 25 9 351 341
119 117 123 126 124 119 110 74 45 52 57 83 111 102 106 84 77 82 73 72 73 71 68 62 59 61 49 34 30 23 28 35 21 24 30 29 33 37 31 33 42 45 30 297 273 30 48 57 42 11 6 14 32 29 328 307 307 321 331 330 330 337 334 320 307 328 354 336 323 332 318 50 94 80 103 128 139 136 136 124 109 85 54 22 2 347 339 336
121 121 128 131 129 119 95 51 40 57 67 89 105 102 98 92 90 94 91 87 77 68 61 53 49 48 42 40 34 26 33 36 14 19 25 30 37 48 43 39 53 48 359 307 222 60 58 54 28 7 349 236 225 270 329 331 331 348 354 341 348 349 336 323 309 327 337 319 318 330 312 56 102 101 106 117 119 116 120 116 96 50 21 358 343 333 331 333
130 127 129 130 126 111 91 72 71 95 97 95 98 101 97 91 88 84 88 96 82 64 53 43 41 38 34 32 28 32 38 37 10 10 16 24 35 43 47 44 58 62 12 16 50 56 57 40 13 360 264 259 266 337 351 343 343 14 11 354 350 348 337 327 324 326 322 296 303 311 291 119 111 113 101 100 102 101 106 99 63 16 355 337 334 330 323 325
139 132 130 128 120 105 88 81 80 98 117 111 90 109 113 89 77 77 83 96 94 61 46 36 32 30 29 20 11 36 46 43 23 6 10 21 27 32 41 30 30 58 33 35 65 75 71 23 351 277 273 358 9 13 11 356 356 37 31 6 342 337 330 314 315 320 314 279 284 314 309 110 134 143 116 109 109 103 103 81 27 357 343 332 330 327 322 320
147 141 138 133 122 105 88 80 74 77 96 121 98 122 155 103 53 56 73 105 106 39 25 25 25 24 19 13 11 69 62 43 27 9 8 20 25 28 47 23 11 40 28 12 73 77 63 15 339 316 13 17 12 16 18 351 343 36 38 6 334 323 318 311 319 322 319 356 34 339 337 358 141 150 135 130 125 108 96 42 1 346 341 337 332 330 330 326
153 151 150 143 131 111 90 76 63 60 63 78 98 164 195 225 33 50 65 108 63 4 2 8 17 15 11 9 9 136 103 39 23 13 12 20 27 32 51 27 23 30 21 70 94 79 61 22 14 30 17 16 15 19 28 354 340 7 10 348 322 313 314 318 324 322 331 345 354 14 355 332 332 126 134 137 131 116 95 15 352 345 339 337 336 335 335 332
162 163 164 159 154 125 85 35 16 26 38 48 40 158 190 216 150 26 290 87 40 1 2 5 12 13 17 18 20 75 151 351 8 18 18 21 31 48 63 15 29 37 358 223 93 62 24 18 40 28 15 22 16 6 12 359 342 355 349 333 318 314 318 324 318 310 333 330 331 38 5 326 332 73 131 138 130 126 78 351 348 346 340 339 338 337 335 333
173 176 184 191 210 246 287 293 324 356 342 347 354 129 154 170 164 250 195 101 19 360 13 20 31 18 26 37 39 63 54 355 4 17 22 28 29 51 63 37 42 31 360 329 42 51 360 19 39 20 20 28 6 344 345 348 348 346 332 319 310 309 313 312 298 303 323 322 334 359 351 327 333 62 138 155 136 98 346 341 343 341 340 340 338 338 336 331
185 194 206 223 250 266 277 288 293 303 313 325 356 149 148 129 153 156 104 148 355 31 15 12 19 3 9 43 44 47 44 31 29 12 28 39 35 52 75 55 71 358 21 37 51 64 7 21 28 7 28 19 339 324 332 1 4 326 306 303 297 294 305 305 311 324 322 328 346 351 350 334 329 63 138 180 135 32 346 341 341 340 341 340 338 337 333 328
204 218 228 244 262 272 277 282 278 275 280 259 235 133 143 124 126 120 87 219 353 8 337 9 7 348 3 39 46 29 35 37 19 10 32 39 40 50 71 52 38 23 79 60 59 71 112 212 227 23 46 1 310 300 327 48 340 303 298 321 315 290 319 304 263 327 322 335 353 352 347 332 324 18 83 101 113 47 351 343 339 340 342 338 336 334 330 328
226 237 247 259 266 273 273 270 267 252 237 217 162 139 141 117 71 129 101 328 18 355 353 25 10 359 20 51 33 12 27 35 13 10 23 28 33 36 37 29 14 360 109 56 55 75 143 179 46 160 88 339 294 266 187 178 288 316 337 351 346 342 340 312 266 343 324 339 352 351 342 331 331 351 81 105 123 144 337 336 334 339 340 335 332 331 330 330
246 253 260 268 267 267 261 254 245 214 205 188 166 161 153 131 313 147 348 316 340 9 26 20 356 18 27 78 33 2 348 26 18 24 25 20 30 31 35 27 348 330 38 22 2 9 148 146 24 193 182 347 333 332 7 187 347 3 6 1 357 354 346 342 346 341 328 333 342 341 329 321 344 10 128 142 155 266 297 314 333 338 335 332 331 330 331 330
253 259 261 264 259 249 224 207 191 179 184 171 164 160 101 115 209 136 338 322 357 20 18 311 346 353 306 314 31 357 334 21 8 21 28 18 51 56 58 39 10 351 2 6 348 345 81 127 59 131 180 8 10 11 2 349 5 15 10 3 1 351 343 343 339 334 324 322 336 350 336 314 338 3 152 167 170 314 295 304 330 332 330 331 331 330 330 331
215 238 228 211 183 164 149 153 160 165 172 164 154 134 68 181 193 131 269 317 356 353 10 326 316 338 12 47 9 330 34 86 9 13 11 8 39 46 48 32 20 8 304 356 9 357 360 30 39 33 348 8 23 37 3 324 339 25 12 352 357 1 341 325 325 327 318 313 331 13 21 334 335 352 146 163 207 281 289 312 326 326 330 332 331 332 332 335
91 90 114 111 109 130 134 141 151 159 166 159 132 77 160 220 205 163 198 182 338 303 41 37 288 311 79 55 26 334 12 49 67 42 29 39 47 27 16 9 9 358 305 355 19 340 317 264 57 48 321 10 18 52 278 300 295 8 354 348 355 343 309 292 268 257 291 309 327 5 356 339 344 93 129 172 241 277 308 327 331 330 334 334 333 334 336 337
70 61 73 111 145 153 152 156 159 161 165 159 102 57 125 221 210 167 157 136 83 339 200 199 336 31 60 7 39 61 12 360 69 68 53 64 73 50 22 341 1 359 351 15 16 346 322 294 40 56 131 45 25 82 57 359 340 342 349 355 336 306 293 319 287 262 299 322 330 334 329 332 341 80 137 221 282 319 330 332 335 335 336 336 335 337 338 337
61 48 50 68 144 172 173 169 163 164 166 149 73 83 171 266 251 213 139 128 128 92 210 184 14 20 16 314 358 356 335 323 342 354 76 100 76 72 58 332 360 353 349 349 158 64 316 294 339 61 142 64 63 105 89 62 5 341 357 344 312 226 172 7 323 318 333 329 325 332 327 328 339 344 337 322 329 337 338 336 337 336 337 338 337 338 338 337
56 44 46 49 72 129 160 163 160 161 150 100 83 116 191 142 188 210 150 111 133 221 46 79 26 7 340 298 360 335 325 336 359 6 65 52 57 109 52 360 17 348 340 311 269 111 272 286 305 136 269 15 108 140 96 78 54 50 51 0 344 304 342 352 337 339 340 326 319 330 328 327 337 333 333 340 340 339 340 340 338 337 339 339 338 339 338 338
37 38 40 37 78 115 125 137 157 160 125 77 116 149 132 121 144 184 159 105 300 252 75 73 29 39 131 307 355 321 324 354 354 354 49 12 27 137 131 13 19 358 347 304 319 95 222 288 331 155 236 295 177 232 305 50 78 111 122 38 38 342 316 317 306 341 336 320 314 325 325 321 334 338 341 344 344 343 341 339 336 337 338 338 338 338 338 339
231 52 33 27 99 123 123 122 117 110 87 67 127 135 117 139 147 148 130 108 64 15 73 140 139 91 133 207 287 320 357 15 346 360 43 1 11 127 119 153 262 1 358 269 331 308 221 254 291 261 237 262 287 55 337 39 54 43 32 16 21 10 221 217 298 96 318 313 315 319 314 305 328 350 358 349 349 346 341 336 334 336 337 338 339 338 337 338
181 127 19 34 131 139 134 100 69 62 79 88 97 108 126 138 136 118 104 100 79 61 89 119 104 100 132 148 176 213 335 37 8 11 47 31 20 64 107 154 194 69 151 220 194 237 259 232 277 307 309 309 28 76 123 121 96 27 19 27 17 12 354 332 340 65 186 297 286 288 293 297 326 359 12 359 353 343 338 336 333 335 337 338 339 338 337 337
164 141 20 67 146 157 132 74 46 46 89 93 89 109 125 127 126 118 106 97 76 71 90 93 68 90 137 158 129 176 201 97 84 18 103 80 24 26 83 128 194 199 200 252 122 156 290 258 258 282 287 308 57 82 107 119 120 92 72 88 55 32 30 353 329 323 312 284 261 270 284 286 342 4 359 1 352 339 337 337 334 335 337 337 338 337 336 336
152 131 81 86 140 151 122 77 42 39 74 90 89 97 109 114 118 125 112 77 71 88 82 85 87 74 112 190 171 180 194 181 207 356 175 215 92 99 156 9 5 205 205 218 106 157 192 227 270 276 262 161 112 110 127 145 151 102 76 70 72 76 53 292 292 318 310 283 293 303 291 283 343 347 343 347 344 336 336 338 337 336 336 337 338 337 336 336
115 94 65 50 182 182 141 106 133 90 102 129 99 84 91 83 72 96 112 61 65 121 93 88 129 90 90 136 143 157 185 190 215 328 118 205 159 123 218 251 34 13 202 104 72 199 215 277 314 318 327 32 116 158 191 210 266 358 78 83 92 106 83 243 231 258 275 296 318 315 295 296 322 334 337 340 338 334 334 337 339 338 336 336 337 336 336 336
109 82 54 49 164 198 170 137 143 134 144 137 104 84 89 77 59 69 95 92 75 90 104 104 125 113 107 124 125 129 65 346 242 119 81 197 204 163 225 242 270 296 106 108 295 278 287 318 340 357 357 342 323 312 308 306 314 329 127 125 123 126 108 241 258 283 306 317 318 295 285 303 315 327 337 340 337 334 333 336 339 339 336 335 334 335 336 337
136 113 58 49 63 99 102 121 132 128 146 142 106 105 122 90 79 79 87 95 92 89 84 93 128 132 126 171 168 156 175 18 47 110 158 207 205 176 221 235 250 223 132 54 354 335 182 278 266 240 260 282 284 283 293 306 305 296 290 154 149 152 144 199 294 312 316 316 302 263 286 307 314 326 336 338 336 333 332 336 338 337 336 334 332 331 333 336
162 159 125 64 65 78 85 102 115 115 136 149 119 148 132 110 127 104 79 82 117 118 93 82 126 169 162 180 180 178 181 42 51 116 156 231 299 268 235 223 230 223 184 5 351 35 165 263 238 221 237 252 269 278 287 294 288 285 291 267 180 171 159 177 268 287 305 317 306 295 310 311 311 323 331 332 333 333 332 335 336 333 331 330 329 328 332 335
160 156 130 131 123 80 77 103 111 107 105 105 104 139 134 126 146 138 106 102 117 145 158 112 136 172 137 194 188 160 158 127 199 180 139 240 265 307 203 205 235 239 199 262 360 50 258 267 167 211 257 261 266 271 276 279 276 271 266 243 216 198 184 202 243 267 285 295 288 298 310 309 306 316 326 328 331 331 327 328 331 331 328 326 327 329 333 335
132 133 115 114 111 96 107 127 120 107 90 76 102 143 159 146 145 129 124 127 119 155 201 180 174 158 154 207 186 156 193 199 221 219 177 182 217 207 171 178 212 220 197 192 42 64 232 249 120 245 280 277 268 264 263 263 260 255 249 235 215 211 224 241 257 268 264 254 267 290 300 297 298 311 320 324 327 326 323 325 329 332 330 327 327 330 334 334
176 162 135 114 97 86 103 126 123 105 75 55 98 153 163 150 153 152 150 153 140 161 209 190 156 144 153 180 182 218 224 204 247 240 177 166 202 208 205 203 167 158 174 175 110 81 248 311 79 121 286 285 268 250 242 240 251 264 258 227 207 220 243 254 260 266 265 264 278 294 297 292 306 322 320 321 325 327 328 329 331 332 331 328 328 332 334 333
209 194 163 132 103 62 89 118 107 99 114 70 123 159 175 175 163 145 122 25 180 162 182 160 146 139 129 178 205 239 237 209 241 231 187 190 219 197 189 194 166 155 130 159 180 221 220 294 66 77 302 287 221 230 269 255 243 264 256 226 210 218 244 262 266 269 278 287 293 299 300 303 323 326 321 321 326 329 331 331 331 330 329 328 330 333 333 331
189 177 169 148 109 57 119 113 71 112 138 129 131 150 168 170 161 148 116 328 184 156 153 160 156 154 160 199 213 224 218 218 241 238 199 199 214 211 193 180 175 180 162 146 193 298 158 270 299 45 297 283 299 316 303 286 161 250 241 210 203 208 253 278 278 272 270 276 288 294 293 302 317 322 321 323 328 330 329 327 326 323 321 325 330 331 330 328
Height
1548 1549 1549 1549 1549 1549 1549 1549 1550 1550 1550 1550 1549 1549 1548 1548 1548 1548 1548 1549 1549 1549 1549 1549 1549 1549 1549 1549 1548 1548 1548 1548 1547 1544 1544 1547 1549 1549 1548 1547 1545 1544 1542 1542 1541 1541 1541 1541 1540 1540 1541 1541 1541 1541 1541 1541 1542 1541 1540 1542 1540 1538 1540 1539 1539 1540 1540 1537 1537 1538 1539 1538 1537 1537 1538 1538 1538 1539 1539 1540 1540 1539 1540 1540 1541 1541 1542 1543
1549 1550 1550 1549 1549 1549 1549 1550 1550 1550 1551 1551 1550 1550 1550 1549 1549 1549 1549 1549 1550 1550 1550 1549 1549 1549 1549 1549 1549 1548 1548 1549 1547 1545 1547 1550 1550 1549 1549 1547 1546 1545 1544 1543 1542 1542 1541 1541 1540 1540 1541 1541 1541 1542 1542 1542 1542 1542 1542 1542 1540 1539 1541 1543 1543 1543 1542 1541 1539 1540 1540 1540 1538 1538 1539 1537 1538 1539 1539 1541 1542 1541 1541 1542 1543 1543 1543 1544
1550 1550 1550 1550 1550 1550 1550 1551 1551 1551 1552 1551 1551 1551 1550 1550 1550 1550 1550 1550 1551 1551 1550 1549 1549 1549 1549 1549 1548 1548 1549 1549 1547 1547 1550 1551 1551 1550 1549 1548 1547 1546 1544 1543 1542 1542 1541 1541 1540 1540 1540 1541 1542 1542 1542 1543 1543 1543 1543 1541 1540 1543 1544 1546 1547 1546 1545 1544 1542 1541 1541 1540 1539 1539 1539 1538 1538 1538 1538 1540 1542 1541 1542 1543 1544 1544 1545 1546
1550 1551 1551 1550 1550 1551 1551 1551 1551 1552 1552 1552 1552 1552 1551 1551 1551 1551 1551 1551 1551 1551 1551 1550 1549 1549 1549 1548 1548 1548 1548 1548 1549 1552 1553 1552 1551 1551 1550 1549 1548 1546 1545 1544 1543 1542 1542 1541 1541 1541 1540 1541 1542 1542 1543 1544 1544 1544 1544 1543 1545 1547 1546 1547 1548 1547 1546 1545 1544 1542 1541 1540 1540 1539 1539 1539 1536 1536 1538 1539 1540 1541 1542 1544 1545 1546 1547 1547
1550 1551 1551 1551 1552 1552 1551 1551 1552 1553 1553 1553 1553 1552 1552 1551 1551 1551 1552 1552 1552 1552 1551 1551 1550 1549 1549 1548 1547 1547 1547 1550 1554 1555 1554 1553 1552 1551 1550 1550 1549 1547 1547 1546 1545 1543 1542 1542 1541 1541 1540 1541 1542 1542 1544 1546 1545 1544 1545 1547 1549 1549 1547 1548 1549 1547 1546 1545 1544 1542 1541 1540 1540 1540 1540 1540 1537 1537 1540 1541 1541 1543 1544 1545 1546 1547 1548 1549
1551 1551 1551 1552 1552 1552 1552 1552 1553 1553 1554 1554 1554 1553 1553 1552 1552 1552 1553 1553 1553 1552 1552 1551 1551 1550 1550 1549 1548 1547 1548 1555 1558 1555 1554 1554 1553 1552 1551 1551 1550 1549 1548 1547 1545 1544 1543 1542 1541 1541 1541 1542 1543 1543 1544 1546 1545 1543 1546 1549 1550 1550 1549 1550 1549 1547 1546 1545 1544 1543 1542 1542 1541 1541 1541 1542 1542 1542 1542 1543 1544 1544 1545 1546 1547 1548 1549 1549
1552 1553 1553 1553 1552 1553 1553 1553 1554 1554 1555 1555 1555 1554 1554 1553 1553 1553 1554 1553 1553 1553 1552 1551 1551 1551 1551 1551 1551 1549 1550 1557 1559 1556 1555 1554 1553 1553 1552 1552 1551 1550 1549 1547 1546 1545 1544 1543 1542 1542 1542 1543 1544 1545 1545 1546 1545 1544 1545 1549 1550 1550 1550 1550 1549 1547 1546 1545 1544 1543 1542 1542 1541 1541 1542 1545 1546 1546 1544 1544 1544 1545 1546 1547 1548 1549 1550 1550
1553 1553 1553 1553 1553 1554 1554 1555 1555 1555 1555 1555 1555 1555 1555 1554 1554 1554 1554 1554 1554 1553 1552 1551 1551 1551 1551 1552 1552 1549 1552 1558 1558 1556 1556 1555 1554 1554 1553 1552 1551 1550 1549 1547 1546 1545 1544 1544 1543 1543 1543 1544 1546 1546 1546 1545 1545 1546 1547 1549 1550 1550 1550 1549 1548 1547 1547 1546 1544 1543 1542 1542 1542 1542 1544 1548 1549 1548 1547 1546 1546 1547 1548 1549 1550 1551 1551 1552
1553 1553 1553 1554 1554 1555 1556 1556 1556 1556 1556 1556 1556 1556 1556 1556 1556 1556 1555 1556 1555 1554 1553 1551 1551 1551 1551 1552 1550 1550 1558 1561 1558 1557 1556 1555 1555 1554 1553 1553 1551 1550 1549 1548 1547 1546 1545 1545 1545 1545 1545 1546 1547 1547 1547 1545 1546 1549 1549 1550 1550 1550 1549 1548 1548 1547 1547 1546 1544 1543 1541 1542 1543 1542 1547 1552 1551 1550 1549 1548 1549 1550 1550 1551 1552 1553 1553 1554
1553 1554 1554 1554 1555 1556 1557 1557 1557 1557 1557 1557 1557 1557 1557 1557 1557 1557 1557 1557 1556 1556 1555 1553 1553 1552 1552 1552 1548 1554 1563 1562 1559 1559 1557 1556 1555 1555 1554 1553 1552 1551 1550 1549 1548 1547 1547 1546 1546 1545 1546 1547 1548 1548 1548 1547 1548 1551 1551 1551 1550 1549 1549 1548 1548 1547 1546 1545 1544 1543 1540 1541 1542 1542 1548 1554 1553 1552 1551 1551 1552 1552 1552 1554 1554 1555 1555 1555
1554 1554 1555 1556 1556 1557 1557 1557 1557 1557 1557 1557 1558 1558 1558 1558 1558 1558 1558 1558 1558 1557 1557 1556 1555 1554 1553 1550 1549 1560 1565 1561 1560 1559 1558 1557 1556 1555 1554 1553 1552 1551 1550 1550 1549 1548 1548 1548 1547 1546 1546 1547 1548 1549 1549 1550 1551 1552 1551 1550 1550 1548 1548 1548 1547 1547 1546 1545 1544 1543 1541 1541 1543 1543 1550 1554 1553 1553 1552 1553 1554 1554 1555 1556 1557 1557 1557 1557
1554 1555 1556 1556 1557 1558 1557 1557 1558 1558 1558 1558 1558 1558 1558 1559 1559 1559 1559 1559 1559 1558 1558 1557 1555 1555 1552 1549 1555 1564 1564 1562 1561 1560 1559 1558 1556 1555 1554 1553 1553 1552 1552 1551 1550 1550 1549 1549 1548 1547 1548 1548 1547 1548 1549 1550 1551 1551 1550 1549 1549 1547 1547 1548 1549 1549 1547 1545 1545 1543 1538 1539 1545 1548 1552 1553 1553 1554 1554 1555 1556 1556 1558 1558 1559 1560 1559 1560
1555 1556 1556 1557 1558 1558 1558 1558 1558 1558 1559 1559 1559 1559 1559 1560 1559 1559 1559 1559 1559 1559 1559 1558 1557 1556 1551 1553 1563 1566 1564 1563 1562 1561 1560 1557 1556 1555 1554 1554 1553 1552 1553 1551 1551 1550 1550 1550 1549 1548 1549 1548 1547 1548 1549 1551 1550 1551 1551 1550 1550 1547 1545 1548 1551 1550 1548 1546 1545 1545 1537 1537 1548 1552 1552 1554 1554 1555 1556 1557 1558 1558 1560 1561 1561 1562 1562 1562
1556 1556 1557 1557 1558 1558 1559 1559 1559 1559 1559 1560 1560 1560 1560 1560 1560 1560 1560 1560 1560 1559 1559 1558 1558 1557 1554 1559 1566 1565 1564 1564 1561 1561 1560 1558 1558 1556 1556 1555 1554 1554 1553 1552 1551 1551 1551 1551 1549 1547 1549 1549 1548 1549 1549 1549 1551 1551 1551 1550 1550 1550 1548 1548 1551 1550 1549 1547 1546 1547 1539 1537 1549 1554 1553 1556 1556 1556 1557 1558 1560 1561 1562 1562 1563 1563 1563 1563
1557 1557 1558 1558 1559 1559 1559 1560 1560 1560 1560 1561 1561 1561 1561 1561 1561 1561 1561 1561 1560 1560 1560 1559 1559 1558 1558 1562 1566 1566 1565 1562 1560 1560 1559 1559 1558 1557 1557 1556 1555 1555 1554 1553 1552 1551 1552 1551 1549 1550 1553 1550 1548 1548 1547 1548 1552 1552 1552 1552 1551 1552 1550 1548 1551 1551 1550 1549 1546 1547 1542 1538 1548 1554 1554 1557 1557 1558 1559 1560 1562 1562 1563 1564 1564 1564 1564 1564
1558 1558 1558 1559 1559 1560 1560 1560 1561 1561 1561 1561 1561 1561 1562 1562 1562 1562 1562 1562 1561 1561 1560 1560 1559 1558 1560 1565 1567 1566 1564 1562 1561 1561 1560 1560 1559 1558 1558 1556 1555 1555 1554 1554 1553 1553 1552 1550 1550 1554 1555 1551 1549 1549 1545 1546 1550 1551 1556 1560 1557 1556 1553 1548 1549 1551 1552 1550 1547 1548 1545 1540 1547 1555 1555 1557 1558 1559 1560 1561 1563 1564 1564 1565 1565 1565 1565 1565
1558 1559 1559 1560 1560 1560 1561 1561 1562 1562 1562 1562 1562 1562 1562 1562 1563 1562 1562 1562 1562 1562 1561 1561 1560 1558 1562 1567 1568 1566 1565 1565 1564 1563 1561 1560 1560 1559 1558 1556 1555 1555 1555 1554 1554 1553 1552 1552 1554 1556 1556 1554 1554 1548 1545 1554 1558 1556 1560 1564 1563 1562 1559 1553 1550 1550 1551 1551 1548 1547 1546 1544 1550 1556 1556 1557 1559 1560 1561 1563 1564 1565 1565 1565 1565 1565 1565 1565
1559 1560 1560 1560 1561 1561 1562 1562 1563 1563 1563 1562 1562 1563 1562 1563 1563 1563 1563 1562 1562 1561 1561 1562 1560 1560 1566 1570 1570 1569 1569 1568 1566 1563 1562 1561 1561 1560 1559 1557 1555 1555 1555 1554 1555 1554 1554 1555 1555 1556 1558 1559 1558 1554 1559 1573 1574 1568 1567 1567 1565 1563 1561 1559 1554 1549 1550 1552 1549 1546 1544 1546 1553 1557 1557 1559 1560 1561 1562 1563 1564 1565 1566 1566 1566 1566 1565 1564
1560 1560 1560 1561 1561 1562 1563 1564 1564 1564 1564 1564 1564 1564 1564 1564 1564 1563 1563 1563 1563 1564 1567 1568 1565 1567 1572 1573 1572 1572 1570 1569 1567 1564 1563 1562 1560 1560 1559 1558 1557 1556 1555 1556 1558 1558 1557 1556 1557 1560 1565 1568 1569 1570 1575 1581 1579 1574 1572 1571 1569 1564 1561 1560 1555 1550 1552 1552 1548 1546 1546 1548 1554 1558 1560 1561 1562 1562 1563 1564 1566 1566 1566 1567 1566 1566 1565 1563
1561 1561 1561 1562 1563 1564 1565 1565 1565 1565 1565 1565 1565 1565 1565 1565 1565 1566 1566 1564 1567 1571 1574 1574 1572 1574 1576 1575 1573 1572 1571 1570 1568 1565 1563 1561 1560 1560 1559 1559 1557 1556 1558 1561 1562 1562 1558 1559 1567 1573 1576 1578 1579 1579 1580 1579 1577 1574 1571 1570 1568 1564 1562 1559 1553 1550 1553 1553 1546 1546 1548 1550 1556 1559 1561 1562 1563 1564 1565 1566 1567 1567 1567 1567 1566 1566 1564 1562
1562 1562 1563 1564 1565 1565 1565 1566 1565 1565 1565 1565 1565 1565 1565 1565 1565 1569 1569 1569 1573 1575 1575 1575 1575 1575 1575 1575 1574 1573 1571 1570 1569 1566 1564 1562 1561 1560 1561 1560 1558 1559 1563 1565 1564 1562 1559 1566 1578 1582 1582 1582 1581 1581 1581 1577 1574 1571 1570 1570 1566 1563 1561 1557 1554 1551 1552 1553 1547 1545 1546 1550 1557 1560 1561 1564 1564 1565 1566 1567 1568 1568 1568 1567 1566 1565 1562 1560
1563 1564 1564 1565 1566 1566 1566 1566 1566 1566 1566 1565 1565 1565 1566 1566 1566 1568 1568 1571 1576 1576 1576 1576 1576 1576 1576 1575 1574 1573 1571 1569 1568 1566 1565 1564 1561 1561 1564 1563 1562 1565 1567 1564 1562 1560 1562 1573 1582 1583 1583 1583 1582 1581 1579 1575 1572 1570 1569 1568 1566 1564 1559 1553 1552 1551 1552 1552 1546 1544 1545 1548 1558 1561 1562 1564 1565 1567 1568 1568 1570 1569 1569 1567 1565 1563 1560 1558
1564 1565 1565 1566 1566 1567 1567 1567 1566 1567 1566 1566 1567 1566 1567 1567 1568 1568 1567 1570 1576 1577 1577 1577 1576 1576 1575 1575 1575 1574 1571 1571 1571 1569 1567 1566 1564 1564 1566 1566 1567 1569 1568 1565 1562 1562 1568 1578 1583 1584 1584 1582 1579 1578 1577 1574 1570 1570 1571 1570 1569 1568 1565 1558 1552 1550 1550 1549 1546 1545 1543 1548 1559 1562 1563 1567 1567 1568 1570 1570 1571 1569 1568 1567 1564 1562 1559 1556
1565 1565 1566 1566 1567 1567 1567 1567 1567 1567 1567 1567 1567 1567 1568 1568 1568 1569 1569 1571 1575 1577 1577 1577 1577 1576 1576 1576 1576 1575 1574 1575 1576 1574 1571 1569 1567 1567 1568 1569 1568 1569 1572 1571 1567 1570 1578 1583 1584 1584 1582 1579 1577 1576 1577 1575 1569 1571 1574 1574 1573 1570 1569 1565 1556 1550 1546 1544 1548 1544 1535 1541 1555 1560 1562 1567 1568 1569 1571 1571 1570 1569 1567 1565 1563 1560 1558 1555
1566 1566 1566 1567 1567 1568 1568 1568 1568 1568 1568 1568 1568 1568 1568 1568 1569 1569 1569 1572 1575 1577 1578 1578 1577 1577 1578 1577 1576 1576 1576 1576 1578 1577 1575 1572 1570 1569 1570 1571 1569 1570 1576 1575 1571 1574 1581 1585 1584 1583 1580 1578 1576 1575 1578 1579 1571 1570 1574 1575 1575 1570 1568 1563 1557 1553 1545 1541 1546 1543 1539 1540 1546 1555 1561 1565 1567 1569 1571 1570 1569 1568 1566 1564 1562 1559 1557 1555
1566 1566 1567 1567 1567 1568 1568 1568 1568 1568 1568 1568 1568 1568 1568 1569 1569 1569 1569 1573 1576 1579 1579 1578 1579 1580 1579 1579 1577 1576 1575 1577 1581 1580 1576 1573 1572 1571 1571 1573 1573 1574 1577 1577 1575 1578 1584 1586 1584 1582 1580 1577 1576 1575 1579 1581 1572 1569 1574 1575 1572 1568 1565 1561 1558 1556 1549 1546 1545 1543 1549 1546 1539 1550 1562 1564 1567 1569 1569 1570 1568 1567 1565 1563 1561 1558 1556 1554
1566 1567 1567 1567 1568 1568 1568 1569 1568 1568 1568 1568 1568 1568 1568 1569 1569 1569 1570 1575 1579 1582 1581 1580 1582 1582 1582 1582 1579 1576 1579 1582 1583 1581 1578 1575 1574 1572 1572 1575 1576 1576 1578 1576 1574 1580 1585 1585 1583 1582 1579 1577 1577 1577 1579 1581 1575 1572 1575 1574 1570 1565 1561 1560 1560 1556 1549 1547 1545 1542 1550 1549 1540 1551 1564 1564 1567 1569 1568 1568 1566 1565 1564 1562 1560 1558 1555 1553
1567 1567 1567 1568 1568 1568 1568 1568 1568 1569 1568 1568 1568 1568 1568 1569 1569 1569 1571 1579 1585 1584 1584 1583 1584 1584 1584 1585 1582 1581 1586 1586 1584 1584 1581 1577 1575 1574 1574 1578 1579 1579 1579 1575 1574 1584 1587 1585 1585 1583 1580 1579 1580 1580 1580 1580 1578 1575 1574 1572 1569 1563 1559 1559 1558 1553 1549 1550 1549 1543 1548 1550 1545 1554 1565 1564 1565 1568 1567 1566 1565 1564 1563 1561 1559 1556 1554 1551
1567 1567 1567 1567 1567 1567 1568 1567 1568 1568 1568 1568 1568 1568 1569 1568 1569 1569 1572 1582 1587 1585 1586 1585 1585 1586 1585 1585 1586 1587 1589 1587 1586 1587 1583 1579 1577 1575 1577 1580 1581 1580 1580 1577 1580 1587 1587 1586 1587 1584 1582 1584 1583 1581 1580 1580 1579 1576 1574 1570 1565 1562 1558 1556 1555 1551 1548 1551 1552 1546 1548 1551 1548 1551 1560 1561 1563 1568 1566 1565 1564 1563 1561 1559 1557 1555 1552 1549
1566 1567 1567 1567 1567 1567 1567 1567 1567 1567 1567 1568 1567 1568 1569 1568 1570 1573 1577 1583 1586 1587 1587 1586 1587 1589 1587 1586 1588 1590 1590 1590 1590 1589 1585 1583 1580 1578 1578 1579 1580 1581 1580 1580 1582 1587 1588 1587 1588 1586 1585 1586 1584 1581 1580 1581 1580 1575 1571 1566 1560 1558 1556 1554 1556 1557 1553 1551 1550 1547 1549 1551 1549 1549 1555 1561 1566 1569 1568 1565 1563 1561 1560 1558 1556 1553 1550 1546
1566 1566 1566 1566 1566 1566 1566 1566 1566 1566 1567 1567 1568 1568 1568 1570 1572 1575 1581 1586 1587 1587 1587 1588 1591 1592 1591 1591 1591 1592 1592 1591 1592 1590 1587 1585 1583 1580 1580 1582 1584 1580 1577 1580 1582 1584 1587 1586 1585 1586 1587 1586 1582 1579 1579 1580 1578 1574 1569 1564 1558 1554 1553 1551 1552 1557 1560 1554 1547 1546 1549 1551 1551 1551 1556 1564 1568 1568 1567 1565 1562 1560 1559 1557 1554 1551 1547 1543
1566 1565 1565 1565 1565 1564 1564 1565 1565 1566 1566 1567 1568 1568 1569 1572 1574 1579 1586 1587 1587 1589 1591 1593 1593 1593 1595 1595 1595 1596 1595 1593 1594 1594 1593 1592 1591 1591 1591 1594 1594 1582 1576 1582 1584 1581 1583 1586 1586 1586 1586 1586 1581 1576 1576 1576 1575 1574 1570 1569 1569 1567 1566 1564 1558 1557 1558 1553 1548 1548 1552 1554 1551 1552 1560 1566 1567 1566 1566 1564 1562 1560 1558 1555 1552 1548 1544 1541
1565 1565 1564 1564 1564 1564 1563 1564 1564 1565 1566 1567 1568 1568 1570 1573 1578 1588 1593 1588 1588 1594 1596 1596 1596 1596 1596 1593 1595 1598 1596 1596 1597 1596 1598 1597 1596 1598 1599 1601 1601 1592 1584 1588 1589 1583 1579 1582 1585 1585 1584 1586 1583 1579 1579 1578 1577 1579 1579 1581 1585 1588 1592 1588 1574 1565 1560 1551 1547 1549 1555 1556 1551 1552 1560 1564 1564 1565 1564 1563 1562 1560 1557 1554 1550 1547 1543 1540
1564 1564 1563 1563 1563 1563 1563 1564 1564 1565 1566 1567 1568 1570 1572 1574 1584 1595 1595 1591 1594 1597 1597 1598 1596 1596 1595 1595 1598 1599 1596 1597 1599 1598 1597 1596 1596 1598 1600 1601 1603 1602 1596 1593 1597 1596 1586 1580 1583 1585 1585 1586 1586 1587 1588 1586 1584 1584 1585 1586 1587 1593 1604 1600 1587 1583 1575 1557 1548 1553 1558 1558 1555 1556 1560 1562 1564 1564 1562 1562 1561 1558 1556 1553 1548 1545 1542 1539
1564 1564 1563 1563 1563 1563 1564 1564 1565 1565 1566 1568 1569 1571 1573 1578 1588 1593 1591 1594 1597 1596 1597 1599 1595 1592 1594 1597 1601 1601 1598 1597 1599 1600 1599 1599 1601 1603 1606 1606 1606 1606 1600 1594 1601 1603 1591 1583 1585 1587 1589 1589 1588 1590 1590 1587 1585 1584 1583 1587 1588 1588 1593 1594 1590 1590 1581 1561 1550 1554 1556 1552 1554 1559 1560 1562 1563 1562 1561 1560 1559 1556 1553 1550 1546 1543 1540 1537
1564 1564 1563 1563 1563 1564 1564 1564 1565 1566 1567 1568 1568 1572 1580 1587 1591 1592 1592 1595 1596 1596 1597 1595 1593 1591 1591 1595 1599 1600 1600 1599 1598 1598 1600 1604 1606 1607 1610 1610 1609 1610 1604 1600 1605 1605 1592 1582 1584 1588 1589 1589 1590 1591 1590 1589 1587 1584 1585 1590 1592 1589 1588 1589 1583 1574 1570 1564 1557 1557 1556 1551 1553 1558 1559 1562 1562 1559 1560 1558 1556 1554 1551 1547 1544 1541 1539 1536
1565 1564 1564 1564 1564 1564 1564 1565 1565 1566 1567 1568 1570 1579 1591 1595 1595 1595 1596 1596 1596 1598 1595 1590 1594 1597 1595 1595 1597 1598 1599 1598 1596 1595 1598 1603 1605 1608 1612 1611 1611 1612 1609 1607 1608 1610 1604 1589 1583 1588 1589 1588 1592 1591 1589 1592 1590 1588 1592 1592 1589 1588 1587 1589 1588 1575 1570 1571 1564 1561 1564 1558 1557 1559 1557 1559 1560 1557 1557 1555 1553 1551 1548 1545 1543 1540 1538 1535
1565 1565 1564 1564 1564 1564 1565 1565 1566 1567 1567 1570 1579 1590 1595 1596 1596 1597 1597 1596 1597 1598 1594 1591 1597 1603 1602 1599 1598 1602 1601 1595 1594 1596 1597 1599 1603 1609 1613 1611 1611 1612 1611 1611 1607 1610 1612 1596 1583 1589 1591 1588 1591 1590 1587 1590 1591 1591 1595 1594 1592 1593 1588 1591 1600 1592 1584 1584 1572 1563 1565 1561 1558 1559 1557 1558 1559 1556 1553 1552 1550 1547 1545 1543 1540 1539 1537 1534
1565 1565 1564 1565 1565 1564 1565 1565 1567 1567 1566 1572 1584 1592 1593 1595 1597 1597 1597 1598 1597 1596 1595 1596 1601 1603 1604 1603 1602 1605 1605 1599 1598 1599 1598 1599 1602 1609 1612 1611 1611 1611 1611 1612 1609 1609 1612 1602 1587 1586 1590 1588 1587 1587 1586 1588 1592 1592 1594 1596 1597 1598 1596 1599 1607 1602 1600 1601 1585 1569 1566 1561 1557 1557 1558 1559 1558 1555 1553 1550 1548 1546 1545 1543 1540 1538 1536 1533
1565 1565 1565 1566 1565 1565 1566 1566 1566 1568 1570 1577 1587 1591 1593 1596 1597 1597 1597 1597 1597 1596 1596 1599 1601 1601 1603 1606 1605 1606 1607 1605 1603 1600 1599 1602 1604 1607 1612 1612 1611 1611 1611 1612 1611 1610 1611 1607 1594 1583 1584 1585 1583 1586 1586 1588 1593 1593 1593 1598 1600 1598 1597 1597 1601 1605 1609 1607 1596 1588 1579 1565 1556 1557 1560 1560 1557 1556 1555 1552 1548 1547 1545 1543 1541 1538 1535 1533
1565 1565 1565 1566 1566 1566 1566 1566 1569 1574 1579 1585 1589 1591 1594 1595 1596 1598 1597 1597 1598 1598 1598 1599 1600 1600 1603 1604 1606 1607 1607 1607 1606 1604 1603 1605 1604 1605 1610 1612 1611 1611 1611 1610 1611 1611 1609 1607 1600 1589 1583 1579 1581 1588 1589 1589 1593 1593 1593 1599 1602 1600 1597 1596 1598 1604 1608 1606 1603 1605 1592 1567 1555 1558 1560 1559 1558 1557 1556 1552 1549 1546 1543 1542 1540 1538 1535 1532
1564 1565 1566 1566 1566 1566 1566 1570 1577 1581 1583 1587 1588 1590 1593 1594 1595 1597 1597 1598 1599 1598 1599 1600 1601 1602 1604 1604 1605 1608 1607 1606 1606 1605 1605 1605 1605 1606 1609 1611 1611 1611 1610 1609 1610 1612 1611 1608 1606 1596 1584 1580 1584 1590 1591 1591 1593 1592 1594 1599 1602 1602 1602 1603 1603 1601 1603 1603 1600 1601 1591 1567 1554 1556 1558 1557 1558 1557 1555 1553 1549 1545 1543 1541 1538 1536 1534 1532
1564 1565 1566 1566 1566 1566 1567 1573 1582 1585 1586 1589 1591 1591 1593 1594 1595 1597 1598 1598 1599 1599 1599 1600 1602 1602 1603 1605 1606 1606 1606 1605 1606 1606 1606 1607 1608 1609 1609 1610 1610 1610 1609 1608 1609 1612 1611 1609 1605 1590 1577 1580 1590 1593 1593 1594 1592 1589 1594 1599 1601 1604 1607 1607 1607 1606 1608 1604 1596 1596 1586 1562 1549 1553 1556 1556 1557 1556 1554 1552 1549 1544 1542 1539 1537 1535 1533 1530
1564 1565 1566 1565 1566 1567 1566 1570 1579 1586 1590 1590 1591 1592 1593 1594 1595 1596 1597 1598 1598 1599 1599 1601 1603 1602 1603 1606 1605 1606 1605 1604 1604 1606 1607 1607 1608 1609 1610 1610 1610 1609 1608 1607 1608 1610 1607 1603 1599 1587 1577 1579 1584 1586 1587 1589 1587 1588 1595 1603 1604 1607 1609 1607 1608 1614 1611 1599 1594 1595 1580 1556 1548 1553 1554 1555 1555 1554 1552 1550 1548 1545 1541 1538 1536 1534 1531 1529
1564 1565 1566 1566 1566 1566 1566 1568 1573 1581 1588 1588 1589 1592 1593 1595 1597 1597 1597 1599 1599 1600 1599 1601 1602 1602 1605 1606 1605 1607 1607 1603 1603 1606 1608 1609 1609 1609 1610 1610 1610 1610 1609 1608 1609 1608 1606 1603 1600 1597 1594 1592 1588 1585 1583 1582 1584 1587 1595 1603 1606 1608 1609 1607 1606 1607 1601 1592 1592 1592 1574 1553 1548 1551 1552 1553 1553 1551 1549 1547 1545 1544 1541 1538 1535 1533 1531 1528
1564 1564 1566 1566 1566 1566 1568 1570 1571 1575 1582 1584 1587 1592 1593 1594 1598 1598 1598 1599 1600 1600 1600 1601 1603 1603 1604 1605 1604 1605 1607 1606 1605 1606 1607 1608 1608 1609 1610 1609 1610 1609 1608 1609 1609 1608 1609 1607 1603 1600 1600 1599 1594 1589 1585 1585 1587 1588 1591 1598 1604 1608 1610 1608 1603 1598 1594 1591 1586 1580 1571 1559 1550 1549 1551 1552 1553 1551 1547 1544 1542 1541 1539 1537 1535 1533 1530 1528
1564 1565 1567 1567 1567 1568 1570 1573 1573 1574 1578 1579 1583 1591 1593 1594 1597 1598 1598 1599 1599 1600 1601 1602 1603 1602 1602 1603 1603 1603 1605 1607 1606 1605 1607 1608 1608 1610 1610 1609 1610 1609 1609 1609 1608 1608 1608 1604 1603 1604 1600 1596 1593 1589 1587 1589 1590 1590 1591 1596 1601 1605 1607 1608 1604 1596 1594 1593 1579 1567 1568 1566 1555 1551 1553 1554 1553 1551 1547 1546 1544 1541 1538 1536 1534 1532 1530 1527
1564 1566 1569 1568 1568 1570 1572 1574 1575 1576 1578 1580 1585 1591 1592 1592 1595 1596 1597 1599 1599 1600 1600 1600 1602 1602 1601 1602 1600 1600 1603 1604 1603 1605 1608 1609 1609 1609 1609 1610 1610 1608 1609 1609 1608 1609 1607 1602 1605 1608 1601 1596 1596 1591 1588 1589 1589 1590 1592 1594 1596 1599 1602 1604 1602 1595 1594 1595 1581 1567 1568 1567 1557 1554 1556 1556 1555 1552 1549 1547 1545 1542 1539 1536 1534 1531 1528 1525
1564 1566 1568 1569 1569 1572 1573 1575 1576 1576 1578 1581 1586 1590 1590 1590 1592 1595 1597 1598 1599 1600 1599 1598 1600 1602 1602 1602 1600 1599 1601 1598 1598 1603 1607 1607 1609 1609 1607 1608 1608 1608 1609 1608 1608 1610 1607 1603 1608 1612 1604 1596 1592 1588 1587 1589 1590 1590 1591 1591 1592 1595 1597 1597 1595 1591 1590 1588 1579 1570 1569 1567 1561 1558 1557 1556 1555 1553 1550 1547 1544 1541 1538 1535 1533 1530 1527 1523
1563 1564 1566 1568 1571 1574 1575 1576 1576 1576 1579 1582 1583 1587 1590 1589 1590 1594 1596 1596 1596 1598 1599 1597 1599 1601 1602 1602 1601 1599 1600 1598 1598 1601 1604 1605 1606 1606 1605 1604 1605 1608 1608 1608 1610 1610 1606 1603 1609 1614 1606 1590 1583 1585 1586 1586 1587 1587 1587 1588 1591 1593 1593 1592 1589 1587 1585 1581 1575 1572 1569 1563 1559 1559 1557 1554 1553 1550 1548 1545 1542 1539 1536 1534 1532 1528 1525 1522
1562 1563 1563 1565 1571 1577 1577 1577 1577 1576 1579 1581 1581 1586 1589 1588 1589 1592 1595 1596 1595 1596 1598 1597 1598 1601 1602 1602 1601 1599 1600 1601 1600 1600 1602 1602 1602 1603 1603 1603 1604 1606 1607 1608 1610 1609 1607 1605 1608 1613 1603 1583 1578 1582 1581 1583 1589 1591 1589 1588 1588 1590 1588 1586 1584 1581 1580 1578 1574 1572 1567 1558 1555 1556 1554 1552 1550 1548 1545 1543 1540 1537 1535 1534 1531 1527 1524 1520
1562 1563 1563 1563 1570 1578 1578 1577 1578 1576 1577 1580 1582 1585 1587 1587 1589 1590 1591 1595 1596 1595 1597 1597 1597 1599 1600 1600 1600 1599 1599 1600 1600 1601 1601 1602 1602 1602 1603 1603 1603 1604 1605 1608 1609 1609 1610 1606 1605 1611 1601 1579 1573 1578 1580 1582 1582 1578 1578 1580 1580 1583 1582 1579 1578 1576 1575 1576 1574 1571 1565 1559 1556 1555 1552 1548 1547 1546 1544 1541 1539 1537 1535 1533 1530 1527 1523 1519